Theta_e
353 352 352 352 352 353 350 352 352 352 353 352 355 355 353 352 353 354 354 355 356 353 352 351 350 351 349 350 348 351 349 346 347 347 348 349 354 355 353 355 354 353 351
352 352 353 353 352 352 352 350 351 352 354 355 353 355 353 353 352 355 355 351 353 353 352 351 350 349 353 352 351 350 348 347 348 352 350 350 351 350 355 355 353 350 349
352 352 353 354 354 353 352 353 350 351 352 353 355 354 353 354 354 353 354 354 352 352 350 349 351 350 350 351 354 352 350 353 353 349 351 351 351 353 351 349 350 352 350
352 351 353 354 354 354 353 353 353 353 353 353 353 354 353 352 354 353 354 355 354 353 350 350 351 351 350 352 354 352 355 354 351 351 351 350 348 350 351 352 350 349 347
351 353 354 355 355 355 355 354 354 354 354 354 354 353 354 354 352 353 352 354 355 353 353 352 351 351 352 353 351 350 354 352 351 353 349 349 349 348 347 349 351 353 351
353 355 355 354 356 357 356 355 354 354 353 353 354 354 354 352 350 352 354 354 354 353 353 352 352 353 353 353 350 347 350 349 353 351 352 350 351 351 350 351 350 350 350
351 352 353 354 355 358 358 358 357 355 354 354 355 354 354 355 351 351 350 351 352 351 351 352 354 352 352 353 352 348 347 345 345 346 348 351 351 346 343 344 345 344 346
352 353 354 355 356 357 358 358 358 358 358 356 355 355 354 354 354 352 350 351 351 352 352 351 353 354 354 353 354 351 351 344 342 346 348 341 338 335 337 339 344 344 340
352 353 353 354 355 357 358 358 358 357 358 357 356 356 355 355 353 352 353 352 351 350 352 352 354 355 354 351 351 351 349 337 337 341 339 334 332 333 334 339 341 342 341
349 352 352 353 354 355 357 356 355 355 355 356 357 357 356 356 354 352 352 351 349 348 352 352 351 350 350 345 347 349 349 340 330 328 329 330 328 329 329 330 328 333 332
348 349 353 351 352 352 354 354 354 354 354 355 355 355 356 355 354 353 352 352 349 351 350 345 343 346 344 342 342 344 347 335 330 329 328 327 328 327 326 323 322 324 328
349 350 351 351 350 351 353 354 353 353 354 355 355 355 355 355 355 351 352 350 352 351 344 338 336 338 338 337 338 339 338 332 327 327 327 327 324 322 322 322 323 323 323
349 349 349 346 344 343 343 346 347 347 349 351 354 351 348 345 346 345 345 344 345 338 335 334 331 332 333 334 334 334 332 329 327 328 326 324 321 321 321 324 324 322 323
346 348 347 342 340 340 339 341 341 343 344 342 342 341 339 340 341 340 338 339 340 336 329 327 327 328 329 329 330 330 329 330 328 326 325 324 323 322 319 318 319 321 321
345 344 340 337 335 331 333 333 335 337 338 340 340 339 337 335 337 338 337 334 332 329 326 324 325 325 324 324 323 323 323 324 324 323 321 319 319 319 318 317 318 319 320
342 338 336 334 332 327 322 321 328 329 331 334 336 336 334 333 331 328 326 327 325 323 322 322 322 322 322 321 320 319 319 319 319 319 317 316 316 316 316 317 317 317 317
336 335 335 334 330 324 324 322 319 319 327 329 331 330 330 324 324 323 323 323 324 324 324 323 322 321 321 319 318 319 319 318 316 316 315 314 314 314 314 314 314 315 316
333 334 335 331 327 325 327 324 322 320 319 317 323 324 325 325 325 324 323 323 322 322 322 321 318 319 321 319 318 317 316 315 315 314 313 313 313 312 312 312 311 311 311
332 334 334 331 329 330 330 326 322 320 319 319 321 323 323 323 322 320 319 317 317 317 318 319 321 320 318 317 316 316 316 315 314 313 312 311 310 310 310 310 309 308 310
333 335 335 332 333 334 332 329 326 324 323 323 322 321 320 319 318 318 321 322 321 321 320 319 318 317 317 316 316 313 312 314 313 313 312 311 311 311 310 311 310 311 311
333 333 334 335 335 335 334 333 331 330 326 325 325 323 320 321 321 323 322 321 320 319 318 317 317 317 318 318 316 315 314 314 314 313 313 312 311 311 311 311 311 311 310
331 331 333 331 329 329 329 325 323 322 322 321 320 319 319 319 321 321 320 320 320 319 318 319 319 318 318 318 317 316 315 315 314 314 313 313 312 312 312 311 311 311 311
328 328 327 328 329 325 324 324 325 322 321 319 319 319 319 319 318 319 318 318 318 318 319 320 320 319 319 319 318 317 316 315 314 313 313 313 312 312 311 311 311 310 311
325 323 321 321 321 321 321 321 321 320 320 319 318 320 320 320 319 319 319 319 319 319 319 319 320 319 320 319 318 317 317 316 314 313 312 312 312 311 311 310 310 310 310
322 318 318 318 318 319 319 319 319 319 319 319 320 320 319 319 320 319 320 320 320 320 320 320 319 319 319 320 318 317 316 315 314 311 312 311 312 311 310 310 310 309 310
319 321 320 320 320 321 321 321 321 321 321 321 321 321 321 321 321 321 321 320 320 320 320 319 319 320 320 318 318 317 316 315 312 310 312 312 311 311 310 309 309 309 309
Wind_Speed
22 20 19 19 19 17 18 16 14 9 6 9 8 9 10 11 11 10 11 7 7 8 8 7 8 7 8 12 14 15 6 6 9 15 12 11 6 3 5 5 4 4 5
22 20 19 19 19 20 19 20 18 16 14 14 13 14 14 12 12 12 12 11 12 10 10 9 7 10 6 10 13 11 10 11 12 9 14 13 7 8 3 4 6 0 3
21 22 21 20 21 21 20 20 20 20 20 18 17 16 15 14 16 14 15 15 13 12 10 9 10 10 9 11 11 14 13 6 10 10 11 11 10 8 7 8 7 8 5
19 21 20 21 21 22 21 21 21 21 21 22 21 20 19 17 17 16 18 15 17 17 11 11 12 13 11 12 11 11 10 10 11 11 12 12 12 9 9 13 6 3 3
20 18 20 20 21 21 21 21 23 23 23 23 23 22 20 19 20 22 18 15 17 16 13 12 14 12 8 10 11 11 10 11 10 8 9 8 8 6 4 9 8 3 1
15 18 20 21 21 21 22 22 22 23 24 23 24 24 23 22 21 21 18 16 16 14 13 14 15 14 13 12 14 16 15 11 9 6 5 4 3 4 3 4 4 5 1
14 18 21 22 23 24 23 24 23 24 25 25 25 24 25 24 22 21 21 18 16 15 15 14 14 15 11 10 12 12 10 8 6 3 5 4 3 2 3 3 5 6 2
14 17 19 20 22 23 23 24 24 24 25 26 26 25 25 25 24 24 22 19 18 17 17 16 14 14 13 13 11 7 6 3 5 1 1 2 1 1 2 4 4 3 2
19 19 17 17 19 21 25 26 26 25 25 26 27 25 24 24 24 26 23 20 21 21 20 16 14 13 14 12 10 12 9 3 2 4 2 3 4 3 2 2 3 4 1
15 18 16 15 14 17 21 25 28 27 26 25 26 27 27 26 24 25 26 21 21 21 14 16 17 12 12 11 7 7 9 9 6 5 6 6 6 6 4 5 5 7 5
13 14 13 10 13 17 19 20 21 23 24 25 26 26 27 27 23 26 24 21 19 12 12 8 9 14 12 9 7 8 9 12 12 8 7 6 5 6 6 7 7 6 6
13 12 14 7 5 5 8 13 15 19 22 23 22 24 21 17 21 21 20 19 15 12 14 12 10 8 9 10 9 6 14 11 11 9 8 6 7 5 4 6 6 6 7
12 12 9 4 2 3 4 4 4 8 7 15 14 14 14 13 13 13 16 16 15 14 13 15 14 12 10 11 13 12 11 13 12 8 7 6 6 4 5 5 3 4 5
12 10 6 5 5 4 4 5 5 6 5 6 8 10 13 12 12 16 19 19 16 17 22 22 19 17 18 17 19 18 13 14 12 11 7 4 5 3 4 3 1 2 5
7 7 9 7 4 2 1 3 4 6 7 7 10 12 14 15 17 21 24 24 25 27 29 28 26 24 22 21 16 18 12 9 10 8 7 5 3 3 5 4 4 4 4
7 12 10 8 6 5 5 6 3 2 5 9 10 12 12 12 18 23 25 28 33 33 29 23 22 21 14 20 16 17 14 11 9 8 7 7 6 4 2 1 2 3 6
13 14 10 10 9 10 10 11 15 14 5 7 6 6 7 19 23 29 33 31 29 31 28 25 22 18 15 15 13 13 14 9 9 9 8 6 3 3 1 3 7 6 7
14 14 12 13 14 16 14 13 14 17 19 23 32 36 36 36 34 33 31 29 25 24 25 24 20 17 12 11 10 12 12 10 9 8 6 4 3 4 4 3 4 4 3
17 14 15 17 19 19 20 20 21 22 23 26 30 32 30 30 28 25 23 25 23 19 18 17 15 13 12 11 11 10 9 9 8 7 6 4 4 4 3 3 5 5 1
15 15 19 22 20 20 21 22 22 21 19 18 18 24 28 27 23 21 14 16 15 15 15 16 14 13 13 12 11 11 10 8 7 6 5 4 3 3 3 3 3 2 3
17 17 13 20 18 21 21 22 20 17 19 20 19 20 24 18 16 16 17 15 15 15 15 15 15 13 12 11 10 9 8 7 5 5 4 3 1 3 2 2 2 2 4
18 16 11 11 16 15 17 22 23 21 19 19 17 15 14 8 14 14 14 13 13 15 15 14 13 12 10 9 8 8 7 6 5 4 3 2 2 2 1 0 2 1 2
22 19 12 9 19 23 19 16 13 17 18 18 19 15 11 14 14 14 14 14 14 13 12 11 10 10 9 8 7 5 3 7 5 2 1 2 2 1 3 3 3 4 6
26 31 31 13 7 10 12 14 13 15 15 16 13 8 11 11 12 11 12 11 10 9 9 8 8 9 10 8 8 7 6 7 5 4 1 1 0 1 3 3 2 3 3
15 28 29 18 10 11 15 13 12 12 11 9 7 7 9 9 10 9 9 8 8 7 6 6 7 8 8 9 9 7 12 15 7 4 2 1 1 2 2 4 2 4 2
15 13 15 19 18 17 16 14 14 14 14 14 13 11 9 8 8 7 6 6 6 6 2 4 3 5 7 8 12 14 14 12 10 8 3 2 1 2 2 3 2 5 3
Wind_Direction
208 202 201 199 204 206 207 211 234 244 237 236 213 229 225 226 229 229 245 279 204 234 256 268 264 273 286 310 316 317 335 295 288 313 328 14 295 311 330 2 305 221 250
210 206 206 202 204 208 214 211 210 221 219 226 224 223 223 230 239 221 232 243 224 233 245 245 256 270 234 273 280 262 280 293 280 302 300 308 341 306 296 293 293 207 231
204 207 211 209 211 215 214 218 220 214 218 221 215 218 220 230 230 231 239 242 252 256 237 244 268 263 275 271 302 297 300 278 265 296 295 295 296 329 312 294 265 264 213
208 211 211 215 218 221 221 220 219 223 219 223 221 218 221 227 228 234 232 227 239 244 239 249 251 264 267 274 272 274 279 294 288 283 280 317 322 321 324 321 327 268 184
211 224 217 222 221 225 232 229 224 221 223 223 223 222 221 225 223 222 229 233 222 232 244 252 255 263 273 264 268 272 273 271 285 289 297 307 332 345 335 268 282 303 198
240 236 230 223 227 229 228 228 230 230 230 228 227 227 223 224 227 225 206 220 225 234 246 252 256 270 273 270 265 262 257 268 268 264 285 300 307 275 302 335 325 335 324
246 240 235 237 233 226 226 224 227 225 229 229 227 226 228 227 235 227 219 220 227 235 241 246 256 266 278 259 259 258 244 240 234 258 298 308 335 1 341 357 358 357 14
251 250 247 241 236 235 228 226 227 225 222 225 228 224 226 227 229 234 226 222 227 236 242 251 247 254 259 245 226 191 168 194 220 261 109 123 138 74 13 345 309 301 134
236 238 240 242 242 239 230 231 232 228 224 221 225 224 224 227 227 227 226 228 235 238 241 244 237 244 249 242 209 213 192 172 262 229 210 136 96 77 49 341 326 351 291
256 254 245 250 264 257 249 240 235 233 235 230 224 222 221 224 227 226 222 227 234 235 211 228 231 227 223 201 194 221 227 183 155 123 101 104 88 67 57 71 43 31 10
267 259 256 259 258 260 259 255 247 239 236 237 234 223 222 221 224 223 219 217 237 208 205 196 223 217 194 214 250 249 233 168 160 148 129 106 84 45 32 60 66 37 354
268 255 246 244 263 282 285 264 259 247 242 236 234 225 221 214 209 215 216 213 222 194 175 181 174 182 189 177 176 157 160 167 156 145 127 106 92 85 26 64 69 69 57
269 243 225 197 226 267 296 330 321 274 255 237 210 176 163 170 193 208 195 192 188 157 166 159 144 141 147 143 132 125 130 128 125 125 120 119 129 165 131 104 102 67 93
276 231 183 170 211 228 241 235 250 270 259 233 200 174 187 193 196 186 179 176 183 161 141 132 130 126 123 121 121 115 123 119 112 112 111 128 123 106 73 31 333 300 246
251 188 165 162 148 110 325 295 250 244 243 238 225 214 193 188 189 186 181 170 159 150 136 126 122 116 113 100 87 99 100 95 106 102 106 106 75 58 56 5 350 304 291
185 169 160 152 136 125 121 74 58 327 270 251 230 226 202 210 189 173 161 152 139 134 119 114 118 112 118 115 125 116 106 102 94 99 82 64 59 38 9 79 348 350 348
183 156 153 148 135 126 114 102 85 78 103 129 156 174 160 124 127 124 121 119 124 120 116 120 117 126 135 133 139 131 111 110 97 103 90 79 46 139 6 50 9 8 28
177 163 152 143 133 125 119 106 95 89 86 89 112 115 117 117 118 121 122 124 121 123 128 128 134 147 156 136 123 111 114 112 101 97 98 87 73 63 65 60 41 9 7
170 157 146 141 140 134 126 116 111 107 103 104 112 114 119 120 122 125 127 129 134 139 148 152 151 145 136 124 115 116 119 116 115 116 108 99 90 91 85 98 127 75 29
167 165 151 149 157 149 137 130 129 125 122 120 123 129 132 130 137 153 170 182 154 144 141 134 131 130 126 128 126 127 122 127 132 127 107 97 88 68 88 89 45 21 59
156 158 155 160 161 159 154 151 152 150 145 145 144 154 154 156 164 146 145 148 143 141 139 137 139 136 136 137 137 135 132 122 126 128 130 112 77 102 93 91 35 21 54
144 144 139 136 140 140 139 139 147 155 151 139 142 169 190 187 142 141 138 140 135 139 141 144 143 149 151 152 152 139 139 127 122 129 146 166 177 146 31 316 333 340 328
130 122 96 150 138 131 132 155 182 138 132 136 141 147 159 139 137 138 137 134 141 147 148 157 160 164 169 174 176 176 174 134 114 69 145 182 211 298 331 317 327 323 56
120 116 112 94 127 151 140 124 105 102 127 139 145 144 127 137 136 137 138 146 153 158 167 179 186 197 190 201 197 202 199 147 138 115 56 51 205 193 299 322 308 20 329
107 112 120 130 189 154 139 132 126 129 133 135 145 116 137 155 145 159 149 161 169 174 181 200 207 211 223 225 235 213 159 160 153 120 136 22 338 333 319 308 336 317 340
110 128 155 182 194 178 167 154 160 166 166 173 167 164 159 156 147 148 157 161 178 174 173 202 240 257 265 239 228 222 189 190 180 173 174 185 280 283 337 305 288 282 137